Updated20/07/2018 11:30 
 

GeoURL
free counters
Scottish Weather Network UK Weather Network Cumulus Top Weather Sites

Peebles Weather - Advisories

Raw Data, Raw Data Expanded

Ignore low humidity and Dew Point values. Something wrong with the sensor.
Daytime temperatures are in direct sunlight so may be higher than official air temperature values.
As with any other website, we log your IP address and browser type in the server logs for diagnostic reasons. Cookies are used to record visit time. No personal information is stored or processed.

All times are in BST (UTC+1) unless specified.

2018/07/20 10:20 EGPH 201020Z 24010KT 9999 -RA BKN016 15/13 Q1012
15.1°C 0.9 mm 2.4 mm 2.4 mm 0.4 mph 1.6 mph 1008.4 hPa 56% X-Ray Solar Flare Level
Planetary K-Index
Planetary K-Index History
Station Warn Rain Snow Flood Wind Ltng Heat Cold Glob Moon Temp Rain 1h Rain Fri Rain 24h Wind 10m Gust Pressure Hum Proton Levels

0.19 m Waxing Gibbous Cool F0-ESE F:71 A:4 Kp:0 SSN:0

This Weather Widget is provided by the Met Office

METEOalarm.eu Weather warnings: Lothian & Borders

 No special awareness required

Warning data courtesy of and Copyright © EUMETNET-METEOalarm (http://www.meteoalarm.eu/).
Used with permission.
Time delays between this website and the www.meteoalarm.eu website are possible, for the most up to date information about alert levels as published by the participating National Meteorological Services please use www.meteoalarm.eu

 

XHTML 1.1 | CSS